Temperature
18 18 18 18 18 17 17 17 17 17 17 17 17 17 17 17 18 18 18 18 18 18 18 18 18 18 18 18 17 17 17 17 17 17 17 17 17 17 17 17 17 17 17
17 17 17 17 17 17 17 17 17 17 17 17 17 17 17 18 18 18 18 18 18 18 18 18 18 18 18 18 18 17 17 17 17 17 17 17 17 17 17 17 17 17 17
17 17 17 17 17 17 17 17 17 17 17 17 17 17 17 17 17 17 17 18 18 18 18 18 18 18 18 18 18 18 17 17 17 17 17 17 17 17 17 17 17 17 17
17 17 17 17 17 17 17 17 17 17 17 17 17 16 17 17 17 17 17 17 17 18 18 18 18 18 18 18 18 18 18 17 17 17 17 17 17 17 17 17 17 16 16
17 17 17 17 17 16 16 16 16 16 16 16 16 16 16 16 16 16 16 17 17 17 17 17 17 18 18 18 18 18 18 18 17 17 17 17 17 17 17 17 17 17 16
17 17 17 17 16 16 16 16 16 16 16 16 15 16 16 16 16 16 16 17 17 17 17 17 17 18 18 18 18 18 18 18 18 18 17 17 17 17 17 17 17 17 17
17 17 17 17 16 16 16 15 15 15 15 15 15 15 16 16 16 16 16 16 16 16 16 17 17 17 17 17 17 17 17 17 17 18 17 17 17 17 17 17 17 17 17
17 17 17 17 17 16 16 16 16 15 15 15 15 15 16 16 16 16 16 15 15 16 16 16 17 17 17 17 17 17 17 17 17 17 17 17 17 17 17 17 17 17 17
17 17 17 17 17 17 16 16 16 16 16 15 15 15 15 15 15 15 15 15 15 15 16 16 17 17 17 17 17 17 17 17 17 17 17 17 17 17 17 17 17 17 17
17 17 17 17 17 17 17 17 17 16 16 15 15 15 15 15 15 15 15 15 15 15 16 16 17 17 17 17 18 18 18 17 17 17 17 17 17 17 17 16 16 17 17
17 17 17 17 17 16 16 16 17 17 16 16 15 15 14 14 14 14 14 15 15 16 15 16 16 17 17 17 17 17 18 17 17 17 17 17 17 17 16 16 16 16 16
16 16 16 16 16 16 16 16 16 16 16 16 16 15 15 14 14 14 13 14 15 16 16 16 16 16 16 17 17 17 17 17 17 17 17 17 17 16 16 16 16 16 16
14 14 15 15 15 16 16 16 15 15 16 16 16 16 15 15 14 14 13 13 13 14 15 15 15 16 16 16 16 17 17 17 17 17 17 17 16 16 16 16 16 16 16
13 13 13 14 14 14 15 15 15 15 15 15 16 16 15 15 14 14 13 13 12 12 14 15 15 15 16 16 16 16 16 17 17 17 16 16 16 16 16 16 15 15 15
13 13 13 13 13 13 13 14 14 14 14 14 15 15 15 15 15 14 14 13 12 12 13 14 14 14 15 15 16 16 16 16 16 16 16 16 16 16 16 15 15 15 15
12 12 12 12 12 12 12 12 12 13 13 13 14 14 14 15 14 14 14 13 13 12 12 13 13 13 14 14 15 15 16 16 16 16 16 16 16 15 15 15 15 15 15
11 11 11 11 11 11 12 12 12 12 12 12 13 13 14 14 14 14 14 13 13 13 12 13 13 13 13 13 13 14 14 15 15 15 15 15 15 15 15 15 15 15 15
11 11 11 11 11 11 11 11 11 11 11 11 12 12 13 13 13 13 14 14 13 13 13 13 13 12 12 12 12 12 13 13 14 14 14 15 15 14 14 14 14 14 14
11 11 11 10 10 10 10 10 10 11 11 11 11 11 12 12 13 13 14 14 13 13 13 13 12 12 12 12 12 12 12 12 12 13 13 13 14 14 14 13 13 13 13
11 11 11 10 10 10 10 10 10 10 10 10 10 11 11 12 12 13 13 14 13 13 13 13 12 12 12 12 12 12 11 11 11 12 12 12 12 13 13 13 13 13 13
11 11 10 10 10 10 10 10 10 10 10 10 10 10 11 11 12 12 13 13 13 13 13 13 12 12 12 12 12 11 11 11 11 11 11 12 12 12 12 12 12 12 12
10 10 10 10 10 9 9 9 9 9 9 9 9 10 10 10 11 12 12 13 13 13 13 13 12 12 12 12 12 11 11 11 10 10 11 11 11 11 11 12 12 12 12
9 9 9 9 9 9 9 9 9 9 9 9 9 9 10 10 11 11 12 12 13 13 13 13 13 12 12 12 12 12 11 11 11 10 11 10 10 11 11 11 11 11 11
7 8 8 9 9 9 9 9 9 9 9 9 9 9 9 10 10 11 12 12 12 13 13 13 13 13 12 12 12 12 11 11 10 10 10 10 10 10 10 10 10 10 10
6 6 7 7 8 8 8 8 8 8 9 9 9 9 9 9 10 10 11 11 12 12 13 13 12 12 12 12 12 11 11 10 9 9 9 10 9 9 9 9 9 8 8
4 5 6 7 7 7 8 8 8 8 8 9 9 9 9 9 9 10 10 11 11 12 12 12 12 12 12 12 12 12 11 11 10 8 9 9 9 9 8 8 8 8 8
Wind_Speed
9 8 7 9 10 12 9 7 7 7 8 10 11 10 9 11 12 13 12 15 16 16 16 16 17 18 20 23 24 24 25 25 26 25 24 23 22 22 22 21 20 20 20
7 9 9 8 7 9 9 7 6 6 5 5 7 7 7 9 11 12 12 12 14 15 14 14 15 16 18 18 20 21 23 24 26 26 26 25 24 23 23 23 22 21 20
11 9 8 7 6 7 7 5 4 3 3 4 4 5 4 6 7 9 10 10 11 13 15 16 16 16 17 18 19 20 20 23 25 26 27 27 26 25 25 25 24 23 22
13 7 7 6 5 5 4 4 3 3 3 3 3 3 3 4 6 7 9 10 10 10 12 15 17 17 18 19 20 20 19 21 23 25 27 27 27 26 26 26 26 25 24
11 6 6 4 4 4 3 3 2 2 3 3 3 3 3 4 5 6 7 8 9 10 11 13 15 17 18 20 21 21 21 21 22 23 25 26 27 27 26 26 26 26 26
9 6 5 5 5 4 3 3 3 2 2 3 2 3 4 5 5 6 8 7 7 9 10 11 11 12 16 18 20 21 22 21 21 21 23 25 27 27 27 27 27 27 27
8 7 5 5 6 5 5 5 3 3 2 1 1 2 3 3 4 5 6 5 5 5 6 7 8 9 10 15 18 20 21 21 21 20 21 23 25 27 28 27 27 27 27
7 7 8 7 7 5 5 5 4 3 2 3 3 1 2 3 2 1 2 3 3 2 3 5 6 7 9 10 12 17 19 21 21 20 20 21 23 25 27 28 27 27 27
5 5 6 6 7 7 7 7 6 6 4 3 3 3 3 3 2 2 1 2 3 3 4 4 6 6 8 9 10 14 17 18 19 20 20 20 20 22 23 25 26 26 26
3 2 3 5 6 6 6 7 7 5 5 4 3 3 2 3 2 2 2 2 4 5 6 6 6 7 7 7 9 12 15 16 16 17 18 19 18 18 18 19 20 22 23
6 5 3 1 4 6 7 7 7 7 6 5 4 3 3 2 2 2 3 3 3 4 6 8 7 6 7 7 8 11 14 15 15 15 15 17 17 17 16 14 14 15 16
3 5 5 3 2 4 6 7 8 9 8 6 5 5 4 3 4 4 5 4 4 4 6 6 6 5 5 6 8 10 13 14 14 14 14 15 17 17 16 14 12 10 10
2 3 3 3 3 4 6 7 8 9 9 8 8 6 6 5 4 4 4 3 3 3 4 3 3 4 4 4 4 7 8 10 11 12 12 14 16 18 17 15 13 11 9
3 4 3 3 3 4 5 6 8 9 8 10 9 8 6 6 6 5 4 3 3 2 2 3 2 3 4 4 5 5 2 3 6 8 9 11 12 15 15 14 12 10 9
5 4 3 3 3 4 4 4 6 8 8 10 10 9 7 6 6 6 6 5 4 2 2 2 1 2 3 4 5 5 4 5 5 7 9 10 11 11 12 12 12 11 9
7 6 5 5 4 4 3 3 5 6 8 9 8 9 9 6 6 6 7 7 7 5 4 2 2 0 1 2 5 6 8 10 11 12 14 15 16 16 16 16 16 15 14
8 7 7 6 5 5 4 3 4 5 7 8 8 9 10 9 7 7 7 7 7 7 7 4 2 1 2 4 3 6 8 8 10 15 17 18 18 18 19 19 19 18 18
10 9 8 7 7 7 5 5 5 4 5 7 8 9 10 9 10 8 7 8 8 8 7 6 3 3 2 5 6 6 6 8 9 15 17 18 19 19 19 20 20 20 20
12 10 9 9 9 8 7 7 7 6 6 6 6 7 8 9 10 9 9 9 8 7 7 6 5 3 2 4 6 6 8 7 9 13 16 16 17 18 18 19 19 20 21
13 12 12 11 10 9 9 8 8 7 7 7 6 6 7 8 9 9 9 10 8 8 7 6 6 4 3 5 6 6 6 5 6 8 12 14 17 18 18 18 18 19 21
14 13 12 11 10 8 9 9 9 8 8 8 7 7 6 8 10 9 8 9 9 9 8 7 7 6 5 7 7 5 8 8 6 5 8 8 9 11 13 16 18 20 22
12 12 12 12 10 9 11 13 10 8 8 8 7 7 6 8 10 12 14 14 13 11 11 9 9 9 9 8 8 10 10 8 5 4 6 7 7 9 8 11 16 21 23
11 11 12 11 11 11 13 13 12 8 8 8 8 7 7 7 8 8 10 14 16 16 14 12 12 11 11 11 13 13 11 7 6 8 8 7 7 9 8 12 18 20 22
9 9 10 11 10 10 13 13 12 8 8 10 10 9 9 9 8 8 8 9 11 12 14 12 11 11 11 13 13 12 12 11 10 5 4 6 5 6 7 11 15 18 20
9 8 8 10 10 10 11 12 9 5 7 10 10 9 9 9 11 11 9 10 9 8 9 12 12 11 15 18 18 15 15 15 12 5 3 5 5 5 6 6 10 14 16
9 8 9 9 10 9 10 11 9 5 7 8 7 7 9 10 11 11 11 11 11 9 8 8 9 13 16 21 22 19 18 17 15 6 3 5 7 5 5 3 5 8 10
Wind_Direction
231 229 230 231 230 231 235 238 233 228 229 232 233 232 232 234 238 241 249 256 260 256 249 241 236 236 237 235 231 226 220 214 209 209 211 213 211 208 205 205 206 204 202
226 230 231 230 227 226 227 227 225 222 225 227 234 230 228 227 232 238 245 254 259 263 259 254 250 244 239 235 234 230 224 219 214 211 212 214 214 212 210 208 209 210 207
232 229 230 228 223 220 217 213 211 198 199 210 228 228 228 227 231 239 248 255 261 265 264 260 257 252 244 237 236 233 228 223 218 215 214 215 214 213 213 212 211 212 211
237 225 225 223 206 194 185 182 176 178 193 201 212 221 225 230 239 244 250 253 255 259 261 259 257 252 246 241 236 234 231 228 222 218 217 216 215 213 213 214 214 213 212
236 212 213 204 179 170 175 175 166 172 184 196 214 228 238 242 248 253 252 253 250 251 254 257 257 254 250 245 238 235 235 232 226 222 220 218 216 214 213 214 215 215 214
222 198 197 185 169 166 174 174 167 169 182 190 222 249 259 262 266 263 261 261 260 258 255 253 253 253 249 246 240 236 236 234 229 223 223 221 219 216 213 214 215 216 217
218 196 191 179 175 179 182 173 158 169 181 147 149 289 292 263 257 256 253 254 261 271 272 263 255 248 247 242 239 237 236 236 232 226 224 224 223 220 215 214 215 216 218
221 208 193 184 178 173 173 175 162 160 176 170 166 166 315 327 311 300 279 265 269 288 298 296 277 256 246 241 237 235 236 235 232 229 226 226 226 226 221 216 215 215 216
229 213 202 190 182 178 184 187 179 169 178 191 189 164 177 232 298 309 291 292 297 300 305 304 293 278 256 241 237 235 234 233 231 228 223 220 223 226 224 220 216 215 216
328 256 208 200 195 191 190 192 189 180 165 179 198 209 199 178 186 304 316 320 310 292 297 297 293 286 270 252 240 234 231 230 231 230 223 217 215 216 217 219 219 218 219
19 16 8 238 215 208 207 196 189 190 180 175 180 179 191 195 191 207 274 310 312 287 283 284 284 281 276 261 251 244 237 231 229 227 223 216 209 204 204 208 216 218 222
0 16 17 3 279 232 219 212 202 197 195 186 187 185 178 176 186 196 230 265 292 292 292 285 281 286 287 276 263 255 244 236 230 226 221 211 201 194 194 198 201 203 213
311 328 346 340 318 267 236 216 209 209 201 198 196 199 201 204 185 181 210 247 271 292 303 306 313 326 327 326 308 285 255 237 228 221 213 203 197 193 190 191 196 198 203
263 275 296 302 307 297 266 226 216 215 207 207 206 203 204 211 201 196 198 210 260 271 274 290 331 2 7 8 11 4 327 233 210 200 192 187 184 182 181 181 186 188 195
253 254 270 284 295 306 299 259 232 221 213 213 213 210 210 211 202 205 206 203 217 251 278 282 312 30 30 24 21 38 52 83 117 134 134 134 136 142 147 151 151 150 153
246 255 259 261 268 274 284 279 253 233 223 222 217 217 218 215 208 204 205 208 211 223 246 245 246 345 71 63 50 65 74 81 90 103 107 110 111 111 114 117 118 119 119
241 243 247 251 257 260 257 260 267 261 241 234 226 223 227 220 214 208 202 202 207 214 239 253 234 215 154 127 91 81 78 73 82 90 96 99 101 102 103 103 103 103 103
237 236 238 243 249 251 243 238 245 254 260 253 239 231 235 229 224 217 206 206 206 207 221 244 239 213 171 149 124 101 85 78 80 84 89 94 96 97 98 97 98 99 99
235 232 228 233 239 242 242 241 238 236 236 244 242 236 237 232 231 223 214 210 206 203 209 225 235 214 159 145 129 105 93 85 81 83 83 86 93 97 98 99 100 101 101
231 229 225 226 232 236 238 241 241 241 237 232 232 236 238 236 239 232 222 216 200 197 201 216 228 219 175 152 142 133 114 91 85 83 86 91 97 98 101 105 107 107 106
236 227 222 221 225 229 235 235 235 238 237 235 231 230 235 245 247 241 229 217 197 196 198 207 215 208 184 168 158 143 131 113 86 95 99 91 95 94 98 104 109 112 110
240 226 218 216 216 222 228 228 226 230 232 233 239 241 244 255 258 251 238 221 200 195 198 201 209 209 193 170 153 150 144 139 123 132 107 91 91 90 90 100 112 114 113
245 230 224 213 213 221 227 235 236 229 232 234 236 243 254 255 262 264 251 228 212 203 195 195 206 206 188 170 159 159 157 142 130 148 123 100 91 88 88 100 111 114 115
254 238 230 222 213 224 227 234 242 237 236 238 236 234 242 257 262 258 246 227 215 211 209 209 214 204 186 170 161 152 139 115 107 109 108 111 106 95 91 96 108 116 119
259 247 237 228 218 225 230 236 239 231 238 242 238 232 234 250 258 246 232 222 213 213 212 209 206 189 165 154 146 138 139 135 134 123 91 108 122 107 93 92 102 117 125
257 251 244 232 221 225 232 236 233 222 237 243 240 232 232 246 257 241 225 215 209 203 186 179 179 166 159 155 153 155 153 149 145 138 155 121 143 129 109 103 110 118 125
Height
1521 1521 1521 1522 1523 1525 1526 1526 1527 1528 1529 1529 1529 1529 1530 1531 1532 1532 1533 1534 1535 1535 1536 1537 1538 1540 1542 1544 1546 1548 1549 1551 1554 1556 1559 1561 1563 1566 1568 1570 1572 1575 1577
1516 1516 1517 1517 1518 1519 1520 1521 1522 1522 1523 1524 1525 1525 1525 1526 1527 1528 1529 1530 1530 1531 1532 1533 1534 1535 1537 1538 1540 1542 1545 1547 1549 1551 1554 1557 1559 1562 1564 1566 1569 1571 1574
1511 1511 1512 1512 1513 1513 1514 1515 1516 1516 1517 1518 1519 1520 1520 1521 1522 1523 1524 1525 1525 1526 1527 1528 1529 1530 1532 1533 1535 1537 1539 1542 1544 1546 1549 1552 1554 1557 1560 1562 1565 1568 1570
1506 1507 1507 1507 1508 1508 1509 1509 1510 1511 1512 1513 1514 1515 1515 1516 1517 1518 1518 1519 1520 1520 1521 1522 1523 1524 1526 1527 1529 1531 1534 1536 1539 1541 1544 1546 1549 1552 1555 1558 1561 1563 1566
1502 1503 1503 1503 1503 1504 1505 1505 1506 1507 1508 1509 1510 1510 1511 1512 1512 1513 1513 1514 1514 1515 1516 1517 1518 1518 1520 1521 1523 1526 1528 1531 1534 1536 1539 1541 1544 1547 1549 1552 1556 1559 1561
1499 1500 1500 1500 1500 1501 1502 1502 1503 1504 1505 1506 1506 1506 1507 1507 1507 1508 1508 1509 1509 1510 1511 1512 1513 1513 1514 1516 1517 1519 1522 1525 1527 1530 1533 1536 1539 1541 1544 1547 1550 1554 1557
1497 1497 1497 1497 1497 1498 1499 1499 1500 1501 1501 1502 1502 1502 1502 1502 1501 1502 1502 1503 1504 1506 1506 1507 1508 1509 1510 1511 1512 1514 1516 1519 1521 1524 1527 1530 1533 1536 1538 1541 1545 1548 1551
1494 1494 1494 1494 1494 1495 1495 1496 1496 1497 1497 1498 1498 1498 1498 1499 1497 1498 1498 1499 1501 1502 1503 1503 1504 1505 1506 1507 1508 1509 1511 1513 1516 1518 1521 1524 1527 1530 1532 1536 1539 1542 1546
1489 1489 1490 1491 1491 1492 1492 1492 1493 1493 1494 1495 1495 1496 1495 1494 1495 1495 1495 1496 1497 1498 1499 1500 1501 1501 1501 1502 1503 1505 1506 1508 1510 1513 1515 1518 1521 1524 1526 1529 1533 1536 1540
1483 1484 1485 1486 1487 1488 1489 1489 1490 1490 1491 1491 1492 1492 1492 1492 1492 1492 1493 1493 1494 1495 1495 1496 1496 1497 1498 1498 1499 1500 1502 1503 1505 1507 1509 1512 1515 1517 1520 1523 1526 1530 1533
1477 1478 1479 1480 1482 1483 1485 1486 1487 1487 1488 1488 1488 1488 1488 1488 1489 1489 1488 1489 1490 1491 1490 1490 1491 1492 1493 1493 1494 1495 1497 1498 1499 1501 1503 1506 1508 1511 1514 1517 1520 1523 1527
1472 1472 1472 1473 1475 1477 1479 1481 1482 1483 1484 1484 1485 1484 1484 1484 1485 1485 1485 1485 1485 1486 1486 1486 1486 1487 1488 1489 1490 1491 1492 1493 1494 1496 1498 1500 1503 1505 1508 1511 1514 1517 1520
1467 1466 1466 1467 1467 1469 1471 1474 1476 1478 1479 1480 1481 1481 1481 1481 1482 1482 1482 1482 1482 1482 1482 1482 1482 1483 1484 1485 1485 1486 1487 1488 1490 1491 1493 1495 1497 1500 1503 1505 1508 1511 1514
1462 1462 1461 1461 1461 1462 1463 1465 1468 1471 1473 1475 1476 1477 1477 1478 1478 1478 1479 1480 1480 1480 1480 1480 1479 1479 1480 1481 1482 1483 1484 1485 1486 1487 1489 1491 1493 1496 1498 1501 1503 1505 1508
1458 1457 1456 1456 1455 1455 1456 1457 1459 1463 1466 1468 1470 1472 1473 1474 1475 1475 1476 1477 1479 1479 1478 1478 1478 1477 1478 1478 1479 1479 1480 1481 1482 1484 1485 1487 1489 1492 1494 1497 1499 1501 1504
1454 1453 1452 1451 1450 1450 1450 1450 1452 1454 1457 1460 1463 1466 1467 1469 1470 1472 1472 1473 1475 1476 1476 1476 1476 1476 1475 1476 1476 1476 1477 1478 1480 1481 1483 1484 1486 1489 1491 1493 1496 1498 1501
1449 1448 1447 1446 1445 1445 1445 1445 1446 1447 1449 1451 1455 1458 1461 1463 1465 1467 1468 1469 1471 1472 1472 1473 1473 1474 1473 1473 1474 1474 1475 1476 1477 1479 1480 1482 1484 1486 1489 1491 1493 1496 1498
1442 1441 1441 1441 1441 1441 1440 1440 1440 1441 1442 1444 1447 1450 1453 1456 1458 1461 1463 1465 1466 1468 1468 1469 1470 1471 1471 1472 1472 1473 1473 1474 1475 1477 1479 1481 1483 1485 1487 1489 1492 1494 1497
1433 1433 1433 1434 1434 1435 1435 1435 1435 1435 1436 1438 1440 1442 1445 1449 1451 1454 1457 1459 1461 1463 1464 1465 1466 1468 1469 1470 1471 1472 1472 1473 1474 1476 1478 1480 1482 1484 1487 1489 1492 1494 1497
1423 1424 1425 1426 1427 1428 1429 1429 1430 1430 1430 1432 1433 1435 1437 1440 1444 1447 1450 1453 1456 1457 1459 1460 1462 1464 1466 1467 1468 1470 1471 1473 1474 1476 1478 1480 1483 1485 1488 1490 1493 1495 1498
1412 1414 1416 1417 1418 1420 1421 1422 1424 1424 1425 1426 1428 1430 1431 1434 1437 1440 1443 1446 1449 1451 1453 1454 1457 1459 1461 1463 1465 1467 1469 1471 1474 1476 1478 1481 1484 1486 1489 1492 1494 1497 1499
1401 1403 1405 1408 1410 1412 1414 1416 1417 1418 1420 1421 1422 1424 1426 1428 1430 1432 1435 1439 1442 1445 1447 1448 1451 1453 1456 1458 1461 1463 1466 1469 1472 1476 1479 1482 1485 1488 1491 1493 1496 1498 1500
1390 1392 1396 1399 1401 1404 1407 1409 1410 1412 1414 1416 1417 1419 1420 1422 1423 1425 1428 1431 1435 1438 1440 1443 1445 1447 1450 1453 1456 1460 1463 1466 1468 1473 1479 1481 1486 1489 1492 1495 1497 1500 1502
1381 1383 1386 1390 1393 1396 1399 1401 1404 1405 1407 1409 1412 1413 1415 1416 1418 1419 1421 1424 1427 1430 1433 1436 1438 1442 1445 1449 1453 1456 1459 1464 1469 1474 1479 1481 1487 1490 1494 1497 1500 1502 1504
1372 1374 1377 1381 1385 1389 1392 1395 1397 1398 1400 1403 1405 1407 1409 1410 1411 1412 1414 1417 1420 1423 1427 1430 1433 1436 1440 1444 1447 1451 1456 1460 1466 1473 1479 1481 1486 1491 1495 1498 1501 1503 1505
1364 1366 1369 1373 1377 1381 1385 1387 1390 1391 1394 1396 1399 1401 1403 1404 1404 1405 1407 1410 1413 1417 1421 1424 1427 1431 1434 1438 1442 1447 1451 1457 1462 1470 1477 1481 1485 1489 1495 1499 1501 1504 1506